Dewpoint
68 67 66 66 66 66 64 63 64 63 65 64 64 65 65 65 64 62 62 62 61 62 59 59 59 61 61 61 62 62 63 63 64 64 65 65 64 66 67 67 67 66 65 63 62 62 62 61 62 62 62 62 61 61 61 61 61 61 60 60 60 59 58 58 59 59 59 59 59 59 59 59 58 58 59 58 58 58 58 58 58 59 60 59 59
67 66 65 66 66 66 66 66 65 65 65 64 65 65 64 64 65 63 60 63 62 62 61 61 57 60 60 61 61 62 64 64 65 65 66 65 65 65 67 67 67 67 66 63 62 62 62 62 62 62 62 61 61 62 62 61 61 61 61 61 60 60 59 59 59 59 59 58 58 58 58 58 58 58 58 58 58 58 58 58 58 58 59 59 59
67 67 67 65 66 66 66 66 66 66 66 65 66 66 65 64 65 64 64 64 63 62 62 62 61 58 60 59 61 64 63 65 64 64 65 65 65 66 66 67 66 66 66 65 63 63 63 63 62 62 63 63 62 62 62 61 61 61 61 61 60 59 59 59 59 58 59 59 58 58 58 59 59 58 58 58 59 59 58 58 59 59 58 58 59
69 68 67 66 66 65 66 66 66 66 66 66 65 66 65 65 66 66 66 65 63 63 63 62 62 59 59 60 62 63 63 64 65 64 64 65 65 66 67 66 66 65 66 66 66 64 63 64 63 63 63 63 63 63 62 62 61 60 60 59 59 59 59 59 59 59 59 58 59 59 59 59 59 59 58 58 59 58 58 58 58 58 57 56 57
68 68 67 66 66 65 65 66 66 66 66 66 66 66 65 64 65 65 64 64 63 63 62 63 63 64 63 61 64 61 64 62 65 65 66 65 64 68 66 65 65 68 67 65 66 64 64 63 63 64 64 64 64 64 63 62 62 61 60 60 60 59 59 59 59 59 59 59 59 59 58 58 59 58 58 58 58 58 58 57 57 57 57 57 57
67 68 67 67 67 67 66 66 66 67 66 66 65 64 64 64 63 63 63 63 63 63 62 62 60 61 63 62 64 66 65 64 65 68 67 66 66 65 66 67 67 65 64 66 66 65 66 64 64 64 64 64 64 64 64 63 63 62 61 61 60 60 60 59 59 59 59 59 59 59 59 59 59 59 58 58 58 58 58 57 57 57 57 57 57
68 68 67 67 67 66 66 65 67 67 65 65 64 65 64 64 63 63 64 62 62 62 62 63 63 61 63 64 63 63 65 65 65 67 68 66 68 66 66 67 67 64 65 68 66 67 66 65 64 64 65 64 64 64 64 64 63 62 61 61 60 60 60 60 60 60 60 59 59 59 59 59 59 59 58 58 57 57 58 57 57 57 57 57 56
68 68 67 67 65 65 65 67 67 66 65 65 65 64 65 65 65 64 62 62 62 62 63 63 63 63 64 64 65 65 65 65 65 65 67 67 66 66 65 66 66 66 65 66 68 65 67 66 67 65 64 64 64 64 64 64 63 62 62 61 61 61 61 60 60 59 59 59 59 59 59 59 59 59 59 58 58 58 58 57 58 58 57 57 57
68 68 68 67 65 66 66 67 66 65 65 66 64 64 65 64 64 64 62 62 61 62 62 63 62 63 63 64 65 65 65 64 65 66 66 66 67 67 66 66 66 65 69 69 66 65 67 67 67 67 66 64 64 64 64 64 63 64 63 62 62 61 61 61 60 60 60 60 60 59 59 58 58 58 59 58 58 58 58 57 58 57 57 57 58
68 67 69 67 66 66 66 67 66 66 65 65 64 65 65 64 63 63 63 62 61 62 62 62 62 62 64 64 65 64 65 65 64 66 66 66 65 64 66 68 68 66 66 67 65 66 65 66 67 67 67 66 66 64 64 64 64 63 63 64 63 63 63 62 62 61 60 61 60 60 59 59 58 58 58 58 58 58 57 58 57 58 57 57 57
67 67 68 66 66 66 67 67 66 65 65 64 64 65 65 64 63 63 63 62 62 62 63 62 63 63 63 63 63 65 65 65 64 65 65 65 64 63 65 66 66 65 66 67 66 65 65 65 65 64 65 66 66 64 64 64 64 63 64 64 64 63 63 64 63 62 61 61 61 61 60 60 59 59 58 58 57 58 57 57 58 58 57 57 57
66 67 67 65 64 66 67 67 66 66 65 64 63 63 64 63 63 62 63 62 62 62 63 63 63 64 64 65 65 64 61 63 63 64 65 65 64 64 63 63 64 64 64 64 63 64 65 65 66 66 63 65 65 65 65 65 65 64 64 64 64 63 63 64 64 63 62 61 61 62 61 61 61 60 59 59 58 58 58 58 58 58 57 57 57
66 65 65 64 64 65 66 66 66 66 65 65 65 65 64 64 63 63 62 62 61 62 63 63 62 61 63 63 63 63 64 63 63 63 63 63 63 63 64 65 63 63 65 64 61 63 65 67 67 64 66 63 64 64 64 64 64 65 64 64 64 64 63 64 64 64 64 63 62 63 62 62 61 61 60 60 60 59 59 59 58 58 57 57 57
65 64 64 64 64 64 65 64 65 66 65 65 65 65 64 64 63 63 61 60 62 64 64 63 60 58 58 59 60 62 62 62 62 61 62 62 63 63 65 64 64 63 64 63 65 64 66 65 64 63 63 63 64 64 64 65 64 63 63 64 64 64 64 64 64 64 63 63 64 63 63 63 62 61 61 61 61 60 60 60 59 59 58 57 57
64 64 64 64 64 64 66 66 67 66 65 65 65 65 65 63 63 61 60 62 62 64 64 63 58 59 60 57 59 58 60 60 61 62 63 63 62 62 62 63 62 63 66 65 66 65 63 65 65 65 64 64 63 62 63 63 63 63 63 65 64 64 64 64 64 64 64 64 63 64 63 63 63 63 63 63 63 62 61 61 60 60 59 59 58
62 62 63 63 65 64 66 66 66 66 64 64 65 65 65 65 64 64 62 61 59 61 63 64 60 59 57 56 58 58 54 57 59 62 63 62 62 62 64 64 64 62 63 62 63 64 63 63 62 64 63 64 64 63 62 63 63 63 63 65 65 64 64 64 64 64 64 64 64 64 63 63 63 63 63 62 63 63 63 63 62 61 60 60 59
63 62 61 63 64 64 63 65 66 67 65 64 63 63 62 64 64 64 63 61 58 62 63 64 62 63 62 55 55 55 55 57 58 60 62 62 61 63 63 63 62 62 62 63 63 63 62 62 62 62 63 63 63 63 63 64 63 64 64 64 64 64 64 64 64 63 64 64 63 63 63 62 62 62 62 62 62 62 62 62 63 62 62 61 61
62 62 61 62 64 63 64 63 66 64 63 64 63 62 63 62 63 64 63 64 61 60 60 64 63 64 64 62 60 57 58 57 56 55 61 61 61 62 61 63 63 62 62 62 62 62 61 61 62 62 62 62 62 63 62 62 62 62 64 63 61 62 64 64 64 64 65 64 64 64 64 63 63 63 63 63 63 63 62 62 63 62 62 62 62
63 61 62 62 63 63 63 63 64 64 64 65 64 64 62 61 62 62 62 63 63 60 61 61 62 63 64 64 63 62 59 57 56 58 56 60 62 62 63 62 61 61 59 60 61 61 61 61 61 61 61 62 62 62 61 61 61 60 60 59 59 58 59 61 63 66 66 65 66 64 63 62 61 60 60 61 61 61 62 62 63 63 63 63 63
62 61 62 62 62 62 62 63 61 61 61 64 64 64 63 62 63 63 62 62 63 61 60 60 59 60 63 61 63 62 59 58 57 54 56 55 57 62 61 61 60 60 60 59 60 60 60 61 60 60 61 60 61 60 60 59 61 60 59 58 57 57 57 57 57 58 62 63 62 61 61 60 59 58 58 58 58 59 60 61 61 61 61 60 59
61 61 61 60 62 61 62 62 62 61 60 59 63 64 65 65 65 64 63 63 63 62 61 60 60 59 61 61 59 59 60 60 59 58 54 55 56 58 58 59 59 59 59 59 59 60 59 59 59 59 60 60 60 60 58 58 58 59 56 56 56 56 55 54 53 53 54 58 58 58 57 56 56 56 55 56 56 57 58 59 59 60 60 59 59
62 61 61 60 61 62 61 61 63 61 59 59 62 65 65 65 65 64 65 64 63 62 62 62 61 63 61 61 58 58 57 57 59 57 57 58 57 56 57 57 55 57 59 59 58 57 57 57 58 57 58 57 57 56 56 56 57 57 54 54 56 55 55 53 50 52 53 54 56 54 54 53 53 53 53 53 53 54 56 58 58 58 58 58 58
60 62 62 60 61 61 61 61 62 62 59 60 63 62 65 65 65 65 64 64 62 62 62 64 63 62 61 62 63 58 57 55 57 56 56 56 55 55 55 53 53 55 56 56 55 54 53 56 56 56 56 54 51 51 52 52 52 51 53 53 54 54 54 52 50 51 52 54 55 52 52 51 51 51 51 51 51 52 52 55 58 58 57 57 56
60 60 62 62 62 61 61 60 59 61 60 60 60 63 64 64 64 64 63 63 63 62 63 63 61 62 61 59 65 61 58 57 55 57 56 55 56 54 53 52 52 51 52 55 51 51 50 50 51 51 50 49 47 47 46 47 48 53 52 52 52 52 54 54 51 50 50 53 53 53 52 53 52 52 51 51 51 51 51 52 54 57 57 56 55
59 59 62 62 61 61 60 59 59 60 59 59 60 59 60 61 64 63 63 63 62 64 61 62 61 63 60 60 59 58 57 58 58 57 57 57 57 54 51 51 51 50 49 49 48 47 48 47 47 45 44 44 42 40 38 41 42 49 48 49 50 51 51 52 52 50 49 48 51 54 52 51 51 51 51 49 50 50 51 50 50 50 51 53 55
58 59 61 60 60 60 60 60 59 60 60 61 61 60 62 57 61 63 63 63 63 64 63 63 63 62 61 59 60 58 59 60 60 58 58 57 55 55 54 52 51 46 45 45 46 44 44 44 44 43 41 41 42 41 42 36 43 51 48 46 48 48 48 48 50 50 47 46 46 48 50 51 51 50 49 48 48 48 48 49 49 49 49 50 51
57 60 60 61 61 60 60 60 60 61 61 61 61 62 62 57 58 63 63 63 63 63 62 63 62 62 62 61 60 60 59 58 59 58 55 57 57 56 54 51 49 46 45 43 43 44 43 43 42 41 41 45 45 42 39 41 45 49 49 45 45 49 48 50 49 49 49 46 46 46 47 47 48 49 49 49 49 49 49 49 49 49 49 50 51
59 60 61 60 60 60 59 58 58 60 60 59 59 58 61 59 58 61 61 60 63 64 62 63 63 63 64 63 60 58 61 59 59 57 55 57 57 56 52 48 47 45 45 45 44 43 43 42 40 39 38 42 44 45 42 38 39 47 49 44 44 46 46 47 48 49 48 48 47 47 46 47 48 49 50 50 49 48 47 47 49 50 49 50 50
59 61 61 60 60 59 58 57 58 59 59 58 57 58 59 57 58 59 59 59 58 59 61 62 62 63 63 63 61 60 60 62 60 60 60 59 55 55 49 47 47 44 44 44 45 44 42 42 39 38 38 40 43 39 37 36 41 46 42 45 45 45 48 45 46 46 45 45 46 47 47 48 49 50 48 48 48 47 48 49 48 48 50 50 49
58 60 60 60 60 58 58 57 57 57 58 57 55 56 57 56 56 55 55 57 57 57 58 59 61 62 62 61 61 59 61 62 61 62 61 59 52 50 47 45 43 41 42 40 43 44 42 43 39 35 36 38 40 43 41 38 46 43 40 42 44 44 45 46 46 46 47 46 45 45 46 47 48 49 48 48 48 48 49 49 48 49 47 48 49
57 59 60 59 59 58 57 55 55 55 57 58 57 56 55 56 54 52 56 55 54 56 57 59 60 61 61 62 62 61 62 63 62 61 60 58 51 48 47 48 48 48 44 42 41 44 44 43 37 34 34 38 38 43 39 38 40 44 44 45 38 44 46 44 47 47 47 47 46 46 48 47 48 48 48 47 48 47 46 45 48 47 44 45 47
58 58 57 57 58 57 56 54 54 53 55 56 55 55 55 54 52 51 52 52 49 51 53 56 55 60 61 60 60 60 61 60 60 59 57 55 52 47 48 49 48 49 46 43 44 43 45 42 40 34 35 40 38 39 41 36 37 45 43 41 38 45 38 38 48 46 48 45 45 46 50 47 48 49 47 48 47 47 47 46 47 44 45 46 47
58 57 57 57 56 56 54 53 51 52 54 56 55 54 53 53 51 51 50 49 48 48 51 55 54 57 55 55 58 60 60 57 56 57 53 53 52 49 49 48 47 49 47 46 43 44 48 48 42 34 36 38 36 38 39 41 41 41 42 42 40 42 41 40 38 46 46 47 45 45 44 45 45 46 45 44 46 46 46 45 45 46 45 45 45
57 56 55 56 56 55 53 51 50 48 51 54 54 53 51 52 52 50 49 47 48 49 50 51 54 55 56 53 52 57 56 54 54 48 49 49 47 46 46 48 45 48 50 44 43 45 48 49 41 35 37 38 35 37 42 44 42 41 38 41 39 41 41 42 40 40 46 46 45 45 45 46 45 45 44 44 44 45 45 45 44 43 45 43 42
56 56 55 55 54 53 52 51 47 47 50 52 54 52 51 50 48 50 50 48 50 50 49 49 49 53 54 55 54 57 56 55 53 51 51 48 45 44 47 46 47 48 46 47 47 45 46 44 44 36 40 38 40 35 37 41 43 40 38 41 40 39 39 44 41 38 44 45 45 46 45 45 45 45 45 45 45 44 45 45 45 44 43 43 42
54 55 54 52 53 53 51 49 47 46 48 52 52 50 49 49 48 47 47 49 48 49 48 46 45 49 52 53 55 56 55 55 52 51 50 50 49 47 47 48 49 49 52 52 49 48 49 45 44 37 38 40 37 36 36 39 41 41 40 40 40 39 39 39 42 39 42 45 45 45 45 45 44 44 44 44 44 45 44 44 44 44 44 44 43
54 54 53 52 52 51 52 47 47 46 46 47 50 51 52 51 49 48 47 47 49 49 50 49 52 49 50 51 50 52 53 52 53 49 48 50 45 47 46 45 45 48 52 52 51 48 49 48 47 43 42 39 37 40 37 37 39 41 40 40 40 40 41 40 40 39 45 45 45 45 44 44 43 44 44 44 44 44 43 44 44 45 45 44 44
53 52 52 51 50 48 47 46 46 45 45 46 47 49 49 51 50 50 50 50 48 47 48 47 47 50 50 49 49 49 49 51 50 50 49 49 45 46 46 44 41 47 50 50 51 50 48 47 49 44 45 42 40 42 40 40 41 40 39 40 42 42 41 43 42 38 37 36 41 42 44 43 44 43 44 44 43 43 43 44 44 44 44 43 43
52 52 50 50 50 47 47 47 46 46 46 47 48 49 48 48 49 49 51 51 50 50 48 47 47 48 48 48 50 51 50 50 51 51 51 51 51 50 49 50 46 48 49 48 47 48 49 48 46 47 46 45 45 42 40 40 40 39 42 42 43 40 44 44 43 39 39 40 42 42 42 41 41 40 43 43 43 43 43 43 44 43 43 42 42
51 49 48 49 51 49 49 47 47 48 48 48 48 48 47 49 50 50 50 51 49 50 51 49 50 50 50 49 48 48 48 49 51 52 52 52 51 51 50 50 50 50 49 48 48 46 48 48 45 45 45 43 43 45 40 39 39 39 38 41 43 43 44 46 46 43 40 44 44 41 42 41 41 42 42 43 43 43 43 43 43 44 43 42 42
53 49 49 49 48 49 49 51 49 49 49 49 49 50 49 48 49 50 50 47 49 48 49 49 49 50 50 52 52 52 60 56 50 52 53 53 55 51 52 52 51 51 50 48 47 45 46 46 46 47 45 44 44 45 43 42 41 41 43 44 44 44 43 45 44 44 40 41 41 38 36 39 35 38 34 36 37 43 42 43 43 44 42 41 41
53 53 52 51 47 49 49 50 51 53 53 58 51 47 47 52 49 46 51 51 49 48 49 49 50 50 50 52 53 58 53 53 51 47 46 47 49 55 56 52 51 51 49 48 47 46 47 46 44 45 45 45 44 46 46 46 46 45 44 45 43 43 44 45 46 45 43 42 42 41 38 41 42 41 42 41 40 43 42 40 42 40 41 41 42
56 54 54 52 53 49 49 49 51 56 57 50 40 40 43 45 55 53 50 50 50 49 49 50 50 51 51 49 52 58 56 54 55 46 44 44 44 44 44 46 49 60 51 49 49 49 46 46 45 46 44 45 46 46 46 45 47 46 43 44 44 45 45 44 43 45 45 44 43 42 42 44 44 42 39 39 41 43 40 43 40 42 41 41 41
58 58 57 56 56 56 55 54 58 56 51 43 39 39 40 41 44 57 53 52 52 51 51 51 51 51 52 52 53 55 54 53 53 57 50 44 43 43 42 42 42 42 42 54 53 49 50 48 48 49 48 47 47 47 45 46 46 46 47 47 48 46 47 45 43 43 45 45 43 43 44 44 43 41 42 39 39 42 44 42 40 40 41 41 42
58 58 57 58 58 58 57 54 52 50 48 41 39 40 39 38 40 46 52 54 53 52 52 52 51 51 52 55 57 57 55 59 56 54 55 55 44 42 43 43 42 41 40 40 41 54 53 51 50 50 49 49 48 48 49 49 49 48 47 47 47 47 47 45 43 43 46 47 46 44 43 43 42 40 41 42 41 42 42 40 41 41 41 42 42
56 55 55 56 56 57 54 50 48 47 46 41 39 39 39 39 38 41 55 55 55 53 53 54 55 55 55 56 55 56 58 59 56 54 55 56 56 54 54 53 53 53 40 39 40 38 47 53 53 51 52 52 51 52 52 52 51 50 49 48 48 47 47 46 51 49 48 46 45 44 42 43 41 41 38 40 41 43 42 42 39 40 41 41 42
51 52 52 52 54 55 53 49 47 46 44 39 39 39 39 39 39 39 59 59 57 56 56 56 57 57 57 57 57 55 55 57 58 57 58 58 58 58 57 56 55 55 55 55 53 52 53 53 52 53 54 54 54 55 55 54 54 53 52 51 51 50 51 49 48 46 44 45 49 47 43 44 43 39 38 37 39 41 41 40 39 40 41 40 40
48 47 48 48 50 51 51 49 46 43 43 37 38 39 39 39 39 57 59 59 58 57 58 58 58 57 57 58 57 57 57 57 53 49 51 59 57 58 57 57 57 57 57 53 45 47 56 59 57 57 58 58 45 55 56 56 54 54 52 52 53 52 49 46 43 43 41 43 46 43 43 44 45 39 37 37 39 38 37 39 39 41 40 40 40
46 46 46 46 45 46 47 47 45 43 42 39 38 38 39 38 47 56 57 56 57 58 58 59 58 58 59 58 58 57 60 58 48 44 45 46 56 56 56 57 57 57 56 56 42 39 38 38 38 39 39 40 41 41 42 43 51 51 52 49 48 49 46 44 44 43 43 43 45 47 45 41 41 39 39 37 37 36 36 35 41 39 40 39 39
45 45 45 44 45 45 45 46 46 43 42 40 37 37 37 37 42 53 51 53 55 56 57 58 57 56 57 57 56 57 59 59 38 42 40 50 56 56 57 56 56 56 56 57 54 51 38 38 38 38 38 38 39 39 40 41 42 45 50 48 49 47 45 45 45 45 46 44 45 44 41 40 43 42 39 36 35 36 36 35 36 42 39 38 38
45 45 44 43 43 44 45 46 46 47 44 41 37 37 37 37 43 51 48 48 50 53 52 51 54 54 56 55 51 52 52 46 40 41 39 45 57 56 56 55 54 53 53 53 54 55 53 52 50 49 46 42 47 49 46 40 41 44 50 50 50 46 45 44 45 45 44 42 43 43 40 40 40 38 37 34 32 31 37 37 36 36 38 37 37